613  
ASUS42 KCHS 181627  
RWRCHS  
 
REGIONAL WEATHER ROUNDUP  
NATIONAL WEATHER SERVICE CHARLESTON SC  
1200 PM EDT WED JUL 18 2018  
 
NOTE: "FAIR" INDICATES FEW OR NO CLOUDS BELOW 12,000 FEET WITH NO  
SIGNIFICANT WEATHER AND/OR S TO VISIBILITY
.  
 
NOT ALL STATIONS ARE QUALITY CONTROLLED. USE DATA WITH CAUTION,  
ESPECIALLY DEWPOINT OBSERVATIONS.  
 
SCZ027-030-031-034>040-042>050-181700-   
..SOUTHEAST SOUTH CAROLINA
 
 
 
CITY SKY/WX TMP DP RH WIND PRES REMARKS
 
N CHARLESTON PTSUNNY 88 77 69 N6 29.95F HX 100  
WATERFRONT PRK N/A 85 78 79 SW6 29.81R HX 97  
MOUNT PLEASANT FAIR 86 77 74 W7 29.95F HX 97  
JOHNS ISLAND NOT AVBL  
PINOPOLIS N/A 82 77 83 CALM 29.90S HX 91  
MONCKS CORNER CLOUDY 84 75 74 CALM 29.94F HX 92  
SUMMERVILLE FAIR 88 77 70 W7 29.95F HX 100  
BEAUFORT MCAS FAIR 89 79 72 W8 29.96S HX 104  
BEAUFORT ARPT FAIR 88 77 70 CALM 29.95F HX 100  
HILTON HEAD IS MOSUNNY 88 77 70 SW5 29.97F HX 100  
WALTERBORO FAIR 88 73 62 W8 29.96F HX 96  
ALLENDALE FAIR 90 75 62 CALM 29.95F HX 100  
   
..SOUTHERN MIDLANDS AND PEE DEE
 
 
 
CITY SKY/WX TMP DP RH WIND PRES REMARKS
 
GEORGETOWN PTSUNNY 82 81 94 W3 29.95F HX 95  
KINGSTREE PTSUNNY 82 77 83 W3 29.94F HX 91  
ORANGEBURG NOT AVBL  
BARNWELL FAIR 88 75 66 CALM 29.96S HX 97  
AIKEN PTSUNNY 86 72 62 N3 30.00F HX 92  
MANNING FAIR 81 72 74 NW3 29.95F  
COLUMBIA PTSUNNY 91 72 53 NE3 29.95S HX 98  
SUMTER PTSUNNY 85 72 64 NE3 29.93F HX 92  
FLORENCE FAIR 88 74 63 N8 29.95S HX 96  
MYRTLE BEACH FAIR 87 76 69 VRB5 29.95F HX 97  
N MYRTLE BEACH PTSUNNY 84 75 74 S7 29.93F HX 92  
 

 
 
GAZ063-065-086>088-099>101-113>116-118-119-134>141-150-181700-   
..SOUTHEAST GEORGIA
 
 
 
CITY SKY/WX TMP DP RH WIND PRES REMARKS
 
SAVANNAH ARPT PTSUNNY 88 78 72 SW5 29.97F HX 101  
HUNTER AAF FAIR 88 79 73 SW9 29.94F HX 103  
FORT STEWART PTSUNNY 88 77 70 SW7 29.95 HX 100  
STATESBORO PTSUNNY 88 76 69 W5 29.97S HX 98  
SYLVANIA FAIR 89 79 71 W5 29.98S HX 105  
CLAXTON PTSUNNY 89 79 72 SW5 29.97F HX 105  
   
..CSRA, CENTRAL AND FAR SOUTHEAST GEORGIA
 
 
 
CITY SKY/WX TMP DP RH WIND PRES REMARKS
 
THOMSON FAIR 88 73 61 NE6 30.02S HX 95  
AUGUSTA-BUSH FAIR 89 76 65 CALM 29.95F HX 100  
AUGUSTA-DANIEL FAIR 89 75 63 VRB3 29.97F HX 99  
SWAINSBORO PTSUNNY 90 77 66 W7 29.98F HX 102  
VIDALIA PTSUNNY 88 73 62 SW6 29.98F HX 96  
EASTMAN FAIR 90 66 45 W5 30.00F HX 93  
HAZLEHURST FAIR 90 73 57 SW6 29.97F HX 97  
ALMA FAIR 90 73 57 SW6 29.99F HX 98  
WAYCROSS FAIR 89 76 64 W9 29.99F HX 100  
JESUP NOT AVBL  
BAXLEY FAIR 86 75 70 SW7 29.98F HX 95  
BRUNSWICK PTSUNNY 88 73 62 SW8 29.99F HX 96  
SAINT SIMONS FAIR 90 74 59 W8G16 29.99S HX 99  
 

 
 
SCZ027-028-034-036>038-045-046-048>050-GAZ119-141-181700-   
..LAKE AND SUPPLEMENTAL COASTAL OBSERVATIONS
 
 
 
STATION/POSITION TIME TEMP WIND PRES WAVE SWELL
 
AIR SEA DIR/SP/G HT/PER HT/PER/DIR  
(UTC) (F) (DEG/KT/KT) (MB) (FT/S) (FT/S/D)  
WINYAH BAY 1545 83 270/ 6 1014.0F  
LAKE MURRAY 1520 85 80/ 3/ 4 1013.9  
ACE BASIN NERRS 1545 88 270/ 2 1015.0S  
FORT PULASKI 1600 85 84 240/ 6/ 7 1015.1  
SAPELO ISLAND 1600 88 260/ 9 1015.0  
 

 
 
ANZ835-935-AMZ111-154-330-350-352-354-370-450-454-472-181700-   
..C-MAN AND BUOY OBSERVATIONS
 
 
 
STATION/POSITION TIME TEMP WIND PRES WAVE SWELL
 
AIR SEA DIR/SP/G HT/PER HT/PER/DIR  
(UTC) (F) (DEG/KT/KT) (MB) (FT/S) (FT/S/D)  
BUOY 41004 1600 81 82 210/ 12/ 16 1014.3  
BUOY 41008 1550 83 85 220/ 12/ 14 1015.4F 3/ 4 2/ 70/ 8  
FOLLY BEACH CMAN 1600 84 200/ 8/ 10 1015.0F  
CAPERS NEARSHORE 1608 83 85 240/ 8/ 12 1013.4F  
FRIPP NEARSHORE 1608 82 85 220/ 8/ 10 1014.2F  
 
 
STATION/POSITION TIME TEMP WIND PRES WAVE SWELL
 
AIR SEA DIR/SP/G HT/PER HT/PER/DIR  
(UTC) (F) (DEG/KT/KT) (MB) (FT/S) (FT/S/D)  
5E ST. MARYS GA 1600 85 N/A 2/ 8  
FRYING PAN BUOY 1600 81 82 270/ 12/ 14 1013.9  
BUOY 41025 1610 79 80 360/ 10/ 12 1013.2  
CAPE LOOKOUT NC 1600 320/ 5/ 6 1013.7F  
BUOY 41002 1610 80 210/ 16/ 17 1015.8  
BUOY 41010 1610 83 85 270/ 10/ 16 1018.1  
ST AUGUSTINE FL 1600 89 82 240/ 9/ 11 1017.0F  
 

 
 
 
CLICK HERE TO GO TO PREVIOUS BULLETINS.

The Nexlab SC Page
The Nexlab GA Page Main Text Page